| time (UTC) | temp F | wind direction | speed MPH | gust MPH | rain 1hr in | rain 24hr in | rain mn in | humidity % | barometer mb |
| 20260504045942 | 47 | 291 | 0.0 | 4.0 | 0.00 | 0.00 | 0.00 | 80 | 1007.0 |
| 20260504045437 | 46 | 274 | 4.0 | 5.0 | 0.00 | 0.00 | 0.00 | 81 | 1007.1 |
| 20260504044934 | 46 | 321 | 1.0 | 3.0 | 0.00 | 0.00 | 0.00 | 81 | 1007.2 |
| 20260504044431 | 46 | 283 | 2.0 | 4.0 | 0.00 | 0.00 | 0.00 | 81 | 1007.3 |
| 20260504043929 | 46 | 271 | 2.0 | 4.0 | 0.00 | 0.00 | 0.00 | 80 | 1007.1 |
| 20260504043426 | 46 | 213 | 5.0 | 9.0 | 0.00 | 0.00 | 0.00 | 80 | 1007.2 |
| 20260504042923 | 46 | 247 | 2.0 | 8.0 | 0.00 | 0.00 | 0.00 | 80 | 1007.3 |
| 20260504042419 | 46 | 283 | 5.0 | 15.0 | 0.00 | 0.00 | 0.00 | 79 | 1007.1 |
| 20260504041916 | 46 | 289 | 2.0 | 7.0 | 0.00 | 0.00 | 0.00 | 79 | 1007.0 |
| 20260504041412 | 46 | 231 | 8.0 | 10.0 | 0.00 | 0.00 | 0.00 | 78 | 1007.1 |
| 20260504040908 | 46 | 266 | 2.0 | 7.0 | 0.00 | 0.00 | 0.00 | 77 | 1007.1 |
| 20260504040406 | 46 | 241 | 2.0 | 12.0 | 0.00 | 0.00 | 0.00 | 75 | 1007.0 |
| 20260504035902 | 47 | 234 | 4.0 | 13.0 | 0.00 | 0.00 | 0.00 | 74 | 1007.1 |
| 20260504035359 | 47 | 257 | 4.0 | 14.0 | 0.00 | 0.00 | 0.00 | 73 | 1007.0 |
| 20260504034856 | 47 | 260 | 2.0 | 11.0 | 0.00 | 0.00 | 0.00 | 70 | 1007.1 |
| 20260504034353 | 47 | 241 | 7.0 | 13.0 | 0.00 | 0.00 | 0.00 | 69 | 1007.3 |
| 20260504033850 | 48 | 287 | 8.0 | 11.0 | 0.00 | 0.00 | 0.00 | 67 | 1007.0 |
| 20260504033348 | 48 | 245 | 3.0 | 9.0 | 0.00 | 0.00 | 0.00 | 63 | 1007.1 |
| 20260504032845 | 48 | 308 | 7.0 | 12.0 | 0.00 | 0.00 | 0.00 | 62 | 1007.1 |
| 20260504032342 | 48 | 240 | 4.0 | 9.0 | 0.00 | 0.00 | 0.00 | 61 | 1007.0 |
| 20260504031839 | 49 | 265 | 4.0 | 10.0 | 0.00 | 0.00 | 0.00 | 60 | 1006.9 |
| 20260504031336 | 49 | 224 | 6.0 | 9.0 | 0.00 | 0.00 | 0.00 | 59 | 1007.1 |
| 20260504030832 | 49 | 348 | 2.0 | 6.0 | 0.00 | 0.00 | 0.00 | 58 | 1007.3 |
| 20260504030330 | 49 | 235 | 3.0 | 5.0 | 0.00 | 0.00 | 0.00 | 57 | 1007.2 |
| 20260504025826 | 49 | 244 | 4.0 | 9.0 | 0.00 | 0.00 | 0.00 | 56 | 1007.2 |
| 20260504025323 | 49 | 239 | 4.0 | 5.0 | 0.00 | 0.00 | 0.00 | 56 | 1007.5 |
| 20260504024819 | 49 | 260 | 1.0 | 5.0 | 0.00 | 0.00 | 0.00 | 55 | 1007.6 |
| 20260504024316 | 49 | 230 | 2.0 | 6.0 | 0.00 | 0.00 | 0.00 | 55 | 1007.7 |
| 20260504023813 | 49 | 280 | 4.0 | 8.0 | 0.00 | 0.00 | 0.00 | 55 | 1007.4 |
| 20260504023309 | 49 | 264 | 4.0 | 7.0 | 0.00 | 0.00 | 0.00 | 54 | 1007.4 |
| 20260504022805 | 49 | 240 | 2.0 | 5.0 | 0.00 | 0.00 | 0.00 | 54 | 1007.6 |
| 20260504022304 | 49 | 299 | 5.0 | 9.0 | 0.00 | 0.00 | 0.00 | 54 | 1007.5 |
| 20260504021758 | 49 | 307 | 3.0 | 5.0 | 0.00 | 0.00 | 0.00 | 54 | 1007.8 |
| 20260504021256 | 49 | 249 | 2.0 | 10.0 | 0.00 | 0.00 | 0.00 | 54 | 1007.7 |
| 20260504020753 | 49 | 261 | 5.0 | 6.0 | 0.00 | 0.00 | 0.00 | 53 | 1007.7 |
| 20260504020249 | 49 | 277 | 3.0 | 11.0 | 0.00 | 0.00 | 0.00 | 53 | 1007.8 |
| 20260504015745 | 49 | 257 | 6.0 | 6.0 | 0.00 | 0.00 | 0.00 | 52 | 1007.9 |
| 20260504015242 | 49 | 266 | 5.0 | 7.0 | 0.00 | 0.00 | 0.00 | 51 | 1007.7 |
| 20260504014737 | 49 | 246 | 6.0 | 7.0 | 0.00 | 0.00 | 0.00 | 49 | 1007.9 |
| 20260504014234 | 50 | 299 | 8.0 | 10.0 | 0.00 | 0.00 | 0.00 | 47 | 1007.7 |
| 20260504013732 | 50 | 253 | 4.0 | 8.0 | 0.00 | 0.00 | 0.00 | 45 | 1007.9 |
| 20260504013230 | 50 | 287 | 2.0 | 4.0 | 0.00 | 0.00 | 0.00 | 43 | 1007.8 |
| 20260504012726 | 50 | 251 | 1.0 | 11.0 | 0.00 | 0.00 | 0.00 | 43 | 1007.8 |
| 20260504012224 | 50 | 253 | 2.0 | 10.0 | 0.00 | 0.00 | 0.00 | 43 | 1007.7 |
| 20260504011721 | 50 | 239 | 5.0 | 9.0 | 0.00 | 0.00 | 0.00 | 43 | 1007.5 |
| 20260504011217 | 50 | 254 | 4.0 | 7.0 | 0.00 | 0.00 | 0.00 | 42 | 1007.5 |
| 20260504010713 | 50 | 235 | 6.0 | 8.0 | 0.00 | 0.00 | 0.00 | 43 | 1007.4 |
| 20260504010210 | 50 | 302 | 4.0 | 9.0 | 0.00 | 0.00 | 0.00 | 42 | 1007.7 |
| 20260504005706 | 50 | 217 | 9.0 | 11.0 | 0.00 | 0.00 | 0.00 | 42 | 1007.7 |
| 20260504005203 | 50 | 230 | 10.0 | 11.0 | 0.00 | 0.00 | 0.00 | 41 | 1007.7 |
| 20260504004701 | 50 | 308 | 4.0 | 8.0 | 0.00 | 0.00 | 0.00 | 42 | 1007.5 |
| 20260504004157 | 50 | 279 | 4.0 | 10.0 | 0.00 | 0.00 | 0.00 | 41 | 1007.6 |
| 20260504003654 | 50 | 298 | 4.0 | 8.0 | 0.00 | 0.00 | 0.00 | 42 | 1007.6 |
| 20260504003151 | 50 | 284 | 4.0 | 6.0 | 0.00 | 0.00 | 0.00 | 42 | 1007.4 |
| 20260504002647 | 50 | 243 | 5.0 | 13.0 | 0.00 | 0.00 | 0.00 | 41 | 1007.4 |
| 20260504002145 | 50 | 255 | 5.0 | 12.0 | 0.00 | 0.00 | 0.00 | 41 | 1007.4 |
| 20260504001643 | 51 | 280 | 3.0 | 9.0 | 0.00 | 0.00 | 0.00 | 41 | 1007.5 |
| 20260504001138 | 50 | 299 | 8.0 | 16.0 | 0.00 | 0.00 | 0.00 | 40 | 1007.6 |
| 20260504000636 | 51 | 312 | 6.0 | 8.0 | 0.00 | 0.00 | 0.00 | 41 | 1007.6 |
| 20260504000133 | 51 | 291 | 4.0 | 15.0 | 0.00 | 0.00 | 0.00 | 40 | 1007.5 |
| 20260503235631 | 51 | 248 | 2.0 | 8.0 | 0.00 | 0.00 | 0.00 | 40 | 1007.4 |
| 20260503235128 | 51 | 279 | 2.0 | 6.0 | 0.00 | 0.00 | 0.00 | 40 | 1007.4 |
| 20260503234626 | 51 | 309 | 9.0 | 10.0 | 0.00 | 0.00 | 0.00 | 40 | 1007.3 |
| 20260503234124 | 51 | 247 | 4.0 | 11.0 | 0.00 | 0.00 | 0.00 | 40 | 1007.4 |
| 20260503233621 | 51 | 237 | 6.0 | 15.0 | 0.00 | 0.00 | 0.00 | 39 | 1007.1 |
| 20260503233116 | 52 | 226 | 9.0 | 10.0 | 0.00 | 0.00 | 0.00 | 39 | 1007.4 |
| 20260503232613 | 52 | 298 | 4.0 | 6.0 | 0.00 | 0.00 | 0.00 | 40 | 1007.5 |
| 20260503232110 | 52 | 196 | 2.0 | 11.0 | 0.00 | 0.00 | 0.00 | 39 | 1007.4 |
| 20260503231609 | 52 | 304 | 5.0 | 11.0 | 0.00 | 0.00 | 0.00 | 40 | 1007.4 |
| 20260503231105 | 51 | 268 | 4.0 | 10.0 | 0.00 | 0.00 | 0.00 | 40 | 1007.6 |
| 20260503230602 | 52 | 251 | 11.0 | 16.0 | 0.00 | 0.00 | 0.00 | 39 | 1007.6 |
| 20260503230059 | 52 | 301 | 13.0 | 13.0 | 0.00 | 0.00 | 0.00 | 40 | 1007.4 |
| 20260503225555 | 52 | 287 | 14.0 | 16.0 | 0.00 | 0.00 | 0.00 | 39 | 1007.4 |
| 20260503225051 | 52 | 286 | 6.0 | 17.0 | 0.00 | 0.00 | 0.00 | 40 | 1007.6 |
| 20260503224549 | 52 | 275 | 7.0 | 15.0 | 0.00 | 0.00 | 0.00 | 40 | 1007.4 |
| 20260503224046 | 53 | 266 | 8.0 | 19.0 | 0.00 | 0.00 | 0.00 | 38 | 1007.6 |
| 20260503223544 | 53 | 271 | 5.0 | 16.0 | 0.00 | 0.00 | 0.00 | 39 | 1007.5 |
| 20260503223039 | 53 | 244 | 4.0 | 13.0 | 0.00 | 0.00 | 0.00 | 40 | 1007.5 |
| 20260503222538 | 53 | 274 | 4.0 | 9.0 | 0.00 | 0.00 | 0.00 | 39 | 1007.4 |
| 20260503222035 | 53 | 261 | 5.0 | 17.0 | 0.00 | 0.00 | 0.00 | 40 | 1007.5 |
| 20260503221533 | 53 | 267 | 6.0 | 16.0 | 0.00 | 0.00 | 0.00 | 39 | 1007.7 |
| 20260503221031 | 53 | 257 | 5.0 | 13.0 | 0.00 | 0.00 | 0.00 | 37 | 1007.6 |
| 20260503220526 | 54 | 276 | 4.0 | 14.0 | 0.00 | 0.00 | 0.00 | 36 | 1007.5 |
| 20260503220023 | 54 | 354 | 3.0 | 9.0 | 0.00 | 0.00 | 0.00 | 36 | 1007.7 |
| 20260503215521 | 53 | 251 | 7.0 | 15.0 | 0.00 | 0.00 | 0.00 | 36 | 1007.5 |
| 20260503215017 | 53 | 272 | 11.0 | 18.0 | 0.00 | 0.00 | 0.00 | 35 | 1007.8 |
| 20260503214516 | 53 | 273 | 6.0 | 14.0 | 0.00 | 0.00 | 0.00 | 36 | 1007.4 |
| 20260503214012 | 53 | 243 | 11.0 | 13.0 | 0.00 | 0.00 | 0.00 | 36 | 1007.6 |
| 20260503213511 | 53 | 299 | 12.0 | 13.0 | 0.00 | 0.00 | 0.00 | 36 | 1007.9 |
| 20260503213007 | 53 | 272 | 7.0 | 17.0 | 0.00 | 0.00 | 0.00 | 35 | 1007.9 |
| 20260503212504 | 53 | 301 | 6.0 | 19.0 | 0.00 | 0.00 | 0.00 | 35 | 1007.7 |
| 20260503212002 | 53 | 242 | 13.0 | 18.0 | 0.00 | 0.00 | 0.00 | 35 | 1007.8 |
| 20260503211459 | 54 | 227 | 15.0 | 21.0 | 0.00 | 0.00 | 0.00 | 34 | 1007.7 |
| 20260503210954 | 54 | 316 | 8.0 | 13.0 | 0.00 | 0.00 | 0.00 | 34 | 1007.9 |
| 20260503210452 | 53 | 319 | 4.0 | 16.0 | 0.00 | 0.00 | 0.00 | 34 | 1007.7 |
| 20260503205952 | 54 | 285 | 13.0 | 15.0 | 0.00 | 0.00 | 0.00 | 34 | 1007.8 |
| 20260503205449 | 55 | 303 | 10.0 | 13.0 | 0.00 | 0.00 | 0.00 | 33 | 1007.6 |
| 20260503204945 | 55 | 339 | 5.0 | 14.0 | 0.00 | 0.00 | 0.00 | 35 | 1007.6 |
| 20260503204442 | 55 | 275 | 8.0 | 13.0 | 0.00 | 0.00 | 0.00 | 35 | 1007.6 |
| 20260503203939 | 54 | 300 | 11.0 | 19.0 | 0.00 | 0.00 | 0.00 | 34 | 1007.7 |
| 20260503203437 | 55 | 357 | 6.0 | 13.0 | 0.00 | 0.00 | 0.00 | 33 | 1007.7 |
| 20260503202933 | 55 | 290 | 9.0 | 15.0 | 0.00 | 0.00 | 0.00 | 32 | 1007.7 |
| 20260503202432 | 54 | 344 | 7.0 | 13.0 | 0.00 | 0.00 | 0.00 | 33 | 1007.8 |
| 20260503201930 | 55 | 297 | 8.0 | 16.0 | 0.00 | 0.00 | 0.00 | 32 | 1007.8 |
| 20260503201427 | 55 | 314 | 8.0 | 21.0 | 0.00 | 0.00 | 0.00 | 36 | 1007.7 |
| 20260503200924 | 53 | 289 | 7.0 | 11.0 | 0.00 | 0.00 | 0.00 | 33 | 1007.7 |
| 20260503200420 | 55 | 22 | 6.0 | 19.0 | 0.00 | 0.00 | 0.00 | 33 | 1007.8 |
| 20260503195917 | 55 | 286 | 3.0 | 10.0 | 0.00 | 0.00 | 0.00 | 35 | 1007.8 |
| 20260503195414 | 54 | 279 | 3.0 | 18.0 | 0.00 | 0.00 | 0.00 | 35 | 1007.9 |
| 20260503194911 | 54 | 266 | 12.0 | 13.0 | 0.00 | 0.00 | 0.00 | 35 | 1007.9 |
| 20260503194408 | 55 | 352 | 5.0 | 11.0 | 0.00 | 0.00 | 0.00 | 33 | 1008.3 |
| 20260503193903 | 53 | 344 | 3.0 | 8.0 | 0.00 | 0.00 | 0.00 | 35 | 1008.3 |
| 20260503193359 | 53 | 287 | 9.0 | 18.0 | 0.00 | 0.00 | 0.00 | 34 | 1008.2 |
| 20260503192855 | 53 | 304 | 6.0 | 10.0 | 0.00 | 0.00 | 0.00 | 35 | 1008.6 |
| 20260503192350 | 53 | 263 | 3.0 | 10.0 | 0.00 | 0.00 | 0.00 | 36 | 1008.6 |
| 20260503191847 | 52 | 268 | 4.0 | 12.0 | 0.00 | 0.00 | 0.00 | 37 | 1008.6 |
| 20260503191345 | 52 | 358 | 6.0 | 14.0 | 0.00 | 0.00 | 0.00 | 36 | 1008.8 |
| 20260503190841 | 52 | 325 | 4.0 | 10.0 | 0.00 | 0.00 | 0.00 | 36 | 1008.8 |
| 20260503190338 | 51 | 284 | 6.0 | 16.0 | 0.00 | 0.00 | 0.00 | 36 | 1008.5 |
| 20260503185835 | 52 | 347 | 8.0 | 10.0 | 0.00 | 0.00 | 0.00 | 37 | 1008.7 |
| 20260503185331 | 51 | 329 | 6.0 | 16.0 | 0.00 | 0.00 | 0.00 | 36 | 1008.7 |
| 20260503184826 | 52 | 327 | 8.0 | 13.0 | 0.00 | 0.00 | 0.00 | 36 | 1008.8 |
| 20260503184322 | 51 | 302 | 5.0 | 8.0 | 0.00 | 0.00 | 0.00 | 36 | 1008.8 |
| 20260503183818 | 52 | 291 | 12.0 | 16.0 | 0.00 | 0.00 | 0.00 | 35 | 1008.8 |
| 20260503183315 | 52 | 43 | 8.0 | 11.0 | 0.00 | 0.00 | 0.00 | 35 | 1008.9 |
| 20260503182812 | 51 | 301 | 6.0 | 9.0 | 0.00 | 0.00 | 0.00 | 37 | 1009.2 |
| 20260503182312 | 52 | 308 | 4.0 | 6.0 | 0.00 | 0.00 | 0.00 | 40 | 1009.1 |
| 20260503181808 | 51 | 276 | 10.0 | 11.0 | 0.00 | 0.00 | 0.00 | 36 | 1009.1 |
| 20260503181305 | 51 | 10 | 10.0 | 13.0 | 0.00 | 0.00 | 0.00 | 34 | 1009.3 |
| 20260503180801 | 51 | 4 | 3.0 | 10.0 | 0.00 | 0.00 | 0.00 | 37 | 1009.2 |
| 20260503180300 | 51 | 335 | 8.0 | 13.0 | 0.00 | 0.00 | 0.00 | 36 | 1009.3 |
| 20260503175755 | 51 | 41 | 9.0 | 15.0 | 0.00 | 0.00 | 0.00 | 36 | 1009.2 |
| 20260503175254 | 53 | 275 | 4.0 | 12.0 | 0.00 | 0.00 | 0.00 | 36 | 1009.3 |
| 20260503174754 | 53 | 308 | 8.0 | 14.0 | 0.00 | 0.00 | 0.00 | 42 | 1009.4 |
| 20260503174254 | 51 | 357 | 7.0 | 13.0 | 0.00 | 0.00 | 0.00 | 40 | 1009.3 |
| 20260503173753 | 51 | 337 | 12.0 | 13.0 | 0.00 | 0.00 | 0.00 | 37 | 1009.5 |
| 20260503173250 | 52 | 286 | 4.0 | 11.0 | 0.00 | 0.00 | 0.00 | 37 | 1009.5 |
| 20260503172747 | 52 | 245 | 4.0 | 13.0 | 0.00 | 0.00 | 0.00 | 38 | 1009.5 |
| 20260503172244 | 50 | 337 | 5.0 | 16.0 | 0.00 | 0.00 | 0.00 | 38 | 1009.7 |
| 20260503171740 | 50 | 329 | 9.0 | 12.0 | 0.00 | 0.00 | 0.00 | 39 | 1009.6 |
| 20260503171237 | 50 | 21 | 9.0 | 14.0 | 0.00 | 0.00 | 0.00 | 42 | 1009.7 |
| 20260503170734 | 50 | 9 | 6.0 | 9.0 | 0.00 | 0.00 | 0.00 | 40 | 1009.8 |
| 20260503170231 | 50 | 41 | 12.0 | 19.0 | 0.00 | 0.00 | 0.00 | 40 | 1009.6 |
| 20260503160153 | 51 | 34 | 6.0 | 10.0 | 0.00 | 0.00 | 0.00 | 41 | 1010.2 |
| 20260503150623 | 49 | 20 | 7.0 | 17.0 | 0.00 | 0.00 | 0.00 | 43 | 1011.1 |
| 20260503150119 | 49 | 358 | 2.0 | 12.0 | 0.00 | 0.00 | 0.00 | 43 | 1011.1 |
| 20260503131013 | 44 | 37 | 9.0 | 10.0 | 0.00 | 0.00 | 0.00 | 64 | 1011.8 |
| 20260503130510 | 44 | 308 | 6.0 | 10.0 | 0.00 | 0.00 | 0.00 | 64 | 1011.8 |
| 20260503110407 | 39 | 269 | 1.0 | 1.0 | 0.00 | 0.00 | 0.00 | 85 | 1011.5 |
| 20260503090258 | 38 | 218 | 0.0 | 2.0 | 0.00 | 0.00 | 0.00 | 87 | 1011.4 |
| 20260503081231 | 39 | 324 | 0.0 | 2.0 | 0.00 | 0.00 | 0.00 | 85 | 1011.7 |
| 20260503080726 | 39 | 290 | 0.0 | 4.0 | 0.00 | 0.00 | 0.00 | 85 | 1011.4 |
| 20260503080224 | 39 | 240 | 2.0 | 2.0 | 0.00 | 0.00 | 0.00 | 85 | 1011.7 |
| 20260503072700 | 39 | 253 | 2.0 | 3.0 | 0.00 | 0.00 | 0.00 | 84 | 1011.5 |
| 20260503072157 | 39 | 307 | 1.0 | 2.0 | 0.00 | 0.00 | 0.00 | 84 | 1011.6 |
| 20260503071654 | 39 | 299 | 0.0 | 2.0 | 0.00 | 0.00 | 0.00 | 84 | 1011.5 |
| 20260503071151 | 39 | 236 | 4.0 | 4.0 | 0.00 | 0.00 | 0.00 | 83 | 1011.4 |
| 20260503070647 | 39 | 235 | 2.0 | 3.0 | 0.00 | 0.00 | 0.00 | 84 | 1011.5 |
| 20260503070146 | 39 | 3 | 0.0 | 2.0 | 0.00 | 0.00 | 0.00 | 83 | 1011.5 |
| 20260503060110 | 40 | 304 | 0.0 | 4.0 | 0.00 | 0.00 | 0.00 | 82 | 1011.7 |
| 20260503055101 | 40 | 18 | 2.0 | 2.0 | 0.00 | 0.00 | 0.00 | 82 | 1011.6 |
| 20260503054557 | 40 | 212 | 3.0 | 3.0 | 0.00 | 0.00 | 0.00 | 82 | 1011.8 |
| 20260503054054 | 40 | 233 | 2.0 | 2.0 | 0.00 | 0.00 | 0.00 | 82 | 1011.8 |
| 20260503053553 | 40 | 177 | 1.0 | 3.0 | 0.00 | 0.00 | 0.00 | 82 | 1011.9 |
| 20260503053050 | 40 | 230 | 1.0 | 6.0 | 0.00 | 0.00 | 0.00 | 82 | 1012.0 |
| 20260503052547 | 40 | 235 | 0.0 | 2.0 | 0.00 | 0.00 | 0.00 | 82 | 1011.9 |
| 20260503052043 | 40 | 247 | 0.0 | 3.0 | 0.00 | 0.00 | 0.00 | 82 | 1011.8 |
| 20260503051539 | 40 | 224 | 0.0 | 3.0 | 0.00 | 0.00 | 0.00 | 81 | 1012.1 |
| 20260503051037 | 40 | 224 | 0.0 | 3.0 | 0.00 | 0.00 | 0.00 | 81 | 1012.2 |
| 20260503050532 | 40 | 269 | 0.0 | 3.0 | 0.00 | 0.00 | 0.00 | 81 | 1012.1 |